TimeCDT,TemperatureF,Dew PointF,Humidity,Sea Level PressureIn,VisibilityMPH,Wind Direction,Wind SpeedMPH,Gust SpeedMPH,PrecipitationIn,Events,Conditions,WindDirDegrees,DateUTC
12:04 AM,71.6,68.0,88,29.99,4.0,SSW,13.8,20.7,0.09,Rain,Heavy Rain,200,2013-09-20 05:04:00
12:16 AM,71.6,69.8,94,29.99,2.0,SSE,8.1,-,0.24,Rain,Heavy Rain,160,2013-09-20 05:16:00
12:27 AM,69.8,69.8,100,29.99,4.0,South,16.1,21.9,0.26,Rain,Rain,170,2013-09-20 05:27:00
12:53 AM,70.0,69.1,97,29.93,9.0,SSW,5.8,-,0.31,Rain,Light Rain,210,2013-09-20 05:53:00
1:01 AM,69.8,69.8,100,29.99,7.0,WNW,10.4,-,0.01,Rain-Thunderstorm,Light Rain,300,2013-09-20 06:01:00
1:16 AM,68.0,66.2,94,30.03,2.5,West,11.5,27.6,0.11,Rain-Thunderstorm,Heavy Rain,260,2013-09-20 06:16:00
1:24 AM,66.2,66.2,100,30.02,1.0,NW,18.4,21.9,0.32,Rain-Thunderstorm,Heavy Thunderstorms and Rain,320,2013-09-20 06:24:00
1:45 AM,64.4,64.4,100,30.03,1.0,North,5.8,-,0.73,Rain-Thunderstorm,Heavy Thunderstorms and Rain,350,2013-09-20 06:45:00
1:50 AM,64.4,64.4,100,30.03,0.8,North,8.1,-,0.89,Rain,Heavy Rain,360,2013-09-20 06:50:00
1:53 AM,64.9,64.9,100,30.00,1.0,NNW,6.9,-,0.98,Rain,Heavy Rain,340,2013-09-20 06:53:00
2:00 AM,64.4,64.4,100,30.04,0.8,North,4.6,-,0.28,Rain,Heavy Rain,360,2013-09-20 07:00:00
2:12 AM,64.4,64.4,100,30.04,1.0,Calm,Calm,-,0.49,Rain,Heavy Rain,0,2013-09-20 07:12:00
2:20 AM,64.4,64.4,100,30.04,3.0,Calm,Calm,-,0.52,Rain,Rain,0,2013-09-20 07:20:00
2:30 AM,64.4,64.4,100,30.04,9.0,Calm,Calm,-,0.52,Rain,Light Rain,0,2013-09-20 07:30:00
2:53 AM,64.9,64.9,100,29.97,10.0,Calm,Calm,-,0.55,Rain,Light Rain,0,2013-09-20 07:53:00
3:53 AM,64.9,64.9,100,29.95,8.0,South,3.5,-,0.03,Rain,Light Rain,170,2013-09-20 08:53:00
4:53 AM,64.9,64.9,100,29.96,7.0,Calm,Calm,-,0.07,Rain,Rain,0,2013-09-20 09:53:00
5:53 AM,64.9,64.9,100,29.95,5.0,Calm,Calm,-,0.06,Rain,Rain,0,2013-09-20 10:53:00
6:53 AM,64.9,64.9,100,29.95,8.0,Calm,Calm,-,0.07,Rain,Light Rain,0,2013-09-20 11:53:00
7:53 AM,64.9,64.9,100,29.96,8.0,Calm,Calm,-,0.03,Rain,Light Rain,0,2013-09-20 12:53:00
8:33 AM,66.2,64.4,94,29.98,5.0,Calm,Calm,-,0.00,Rain,Light Rain,0,2013-09-20 13:33:00
8:53 AM,66.0,64.9,96,29.95,6.0,Calm,Calm,-,0.02,Rain,Light Rain,0,2013-09-20 13:53:00
9:12 AM,66.2,64.4,94,29.99,6.0,Calm,Calm,-,0.00,Rain,Light Rain,0,2013-09-20 14:12:00
9:40 AM,66.2,66.2,100,29.99,6.0,Calm,Calm,-,0.00,Rain,Light Rain,0,2013-09-20 14:40:00
9:53 AM,66.9,66.0,97,29.95,6.0,Calm,Calm,-,0.00,,Overcast,0,2013-09-20 14:53:00
10:53 AM,69.1,66.9,93,29.95,6.0,NNW,6.9,-,0.00,,Overcast,330,2013-09-20 15:53:00
11:53 AM,71.1,66.9,87,29.96,10.0,Variable,3.5,-,N/A,,Mostly Cloudy,0,2013-09-20 16:53:00
12:53 PM,70.0,66.0,87,29.96,10.0,North,9.2,-,N/A,,Overcast,350,2013-09-20 17:53:00
1:53 PM,70.0,66.0,87,29.94,10.0,North,6.9,-,0.00,,Overcast,350,2013-09-20 18:53:00
2:26 PM,69.8,64.4,83,29.95,10.0,Variable,3.5,-,N/A,,Overcast,0,2013-09-20 19:26:00
2:53 PM,70.0,64.0,81,29.92,10.0,North,10.4,16.1,N/A,,Overcast,350,2013-09-20 19:53:00
3:53 PM,69.1,61.0,75,29.93,10.0,North,9.2,-,N/A,,Overcast,360,2013-09-20 20:53:00
4:53 PM,69.1,57.0,65,29.92,10.0,North,12.7,17.3,0.01,,Overcast,360,2013-09-20 21:53:00
5:53 PM,68.0,55.0,63,29.92,10.0,North,5.8,-,N/A,,Overcast,360,2013-09-20 22:53:00
6:53 PM,66.0,53.1,63,29.93,10.0,Calm,Calm,-,N/A,,Mostly Cloudy,0,2013-09-20 23:53:00
7:53 PM,63.0,55.0,75,29.95,10.0,Calm,Calm,-,N/A,,Partly Cloudy,0,2013-09-21 00:53:00
8:53 PM,61.0,57.0,87,29.95,10.0,Calm,Calm,-,N/A,,Clear,0,2013-09-21 01:53:00
9:53 PM,59.0,57.9,96,29.96,10.0,Calm,Calm,-,N/A,,Clear,0,2013-09-21 02:53:00
10:53 PM,57.0,57.0,100,29.96,10.0,Calm,Calm,-,N/A,,Clear,0,2013-09-21 03:53:00
11:53 PM,60.1,52.0,75,29.96,10.0,North,4.6,-,N/A,,Clear,10,2013-09-21 04:53:00